Location: Huppendorf
(49.9333°N, 11.1500°E)
Time: 19:53:52
(UTC+00:00)

ATLAS 3B R/B - Pass Details

Date: 27 February 2020
Orbit: 1029 x 1166 km, 63.8° (Epoch: 12 March)

Event Time Altitude Azimuth Distance (km) Brightness Sun altitude
Rises 19:25:27 0° 315° (NW) 3,796 6.6 -25.0°
Reaches altitude 10° 19:28:09 10° 321° (NW) 2,850 5.7 -25.4°
Maximum altitude 19:34:41 51° 37° (NE) 1,303 3.0 -26.4°
Enters shadow 19:35:30 49° 60° (ENE) 1,343 2.9 -26.5°
